Regional Weather Roundup
Issued by NWS

Current Version | Previous Version | Text Only | Print | Product List | Glossary On
Versions: 1 2 3 4 5 6 7 8 9 10 11 12 13 14 15 16 17 18 19 20 21 22 23 24 25 26 27 28 29 30 31 32 33 34 35 36 37 38 39 40 41 42 43 44 45 46 47 48 49 50
000
ASUS46 KSEW 032110
RWRWA

WASHINGTON REGIONAL WEATHER ROUNDUP
NATIONAL WEATHER SERVICE SEATTLE WA
200 PM PDT FRI JUL 03 2015

NOTE:"FAIR" INDICATES FEW OR NO CLOUDS BELOW 12,000 FEET WITH NO
SIGNIFICANT WEATHER AND/OR OBSTRUCTIONS TO VISIBILITY.

WAZ505-507>509-032200-
SEATTLE, TACOMA, EVERETT, AND VICINITY

CITY           SKY/WX    TMP DP  RH WIND       PRES   REMARKS
EVERETT        SUNNY     84  55  36 VRB6      29.95F
BOEING FIELD   SUNNY     89  51  27 NW6       29.91F
RENTON         SUNNY     87  56  34 NW8       29.91F
SEATAC AIRPORT SUNNY     88  53  30 NW10      29.94F
JBLM-MCCHORD   SUNNY     88  53  30 N8        29.92F
PUYALLUP       FAIR      90  55  31 N9        29.94S
BREMERTON      SUNNY     90  57  33 N7        29.95F
JBLM-FT LEWIS  SUNNY     89  53  28 N9        29.92F
TACOMA NARROWS SUNNY     85  53  33 SE6       29.93F
$$

WAZ001-503-506-510-514-515-032200-
NORTH INTERIOR

CITY           SKY/WX    TMP DP  RH WIND       PRES   REMARKS
BELLINGHAM     SUNNY     78  57  48 CALM      29.93F
FRIDAY HARBOR  SUNNY     81  53  37 N9        29.94F
EASTSOUND      SUNNY     70  55  60 NW6       29.94S
PORT ANGELES   SUNNY     79  53  40 VRB6      29.95F
PORT TOWNSEND  FAIR      82  57  42 CALM      29.92F
NAS WHIDBEY    SUNNY     73  56  54 W7        29.97F
ARLINGTON      SUNNY     88  57  35 NW13      29.92F
BURLINGTON     SUNNY     81  57  44 W12       29.93F
$$

WAZ020-022-039-040-504-511-512-032200-
SOUTHWEST INTERIOR

CITY           SKY/WX    TMP DP  RH WIND       PRES   REMARKS
SHELTON        SUNNY     87  55  33 W8        29.91F
OLYMPIA        SUNNY     89  52  28 VRB6      29.92F
CHEHALIS       FAIR      91  59  33 VRB3      29.92F HX  90
KELSO          SUNNY     82  61  47 W8        29.96F
VANCOUVER      SUNNY     88  57  34 VRB6      29.89F
SCAPPOOSE, OR  SUNNY     88  62  41 VRB5      29.89F
PORTLAND, OR   SUNNY     89  58  34 W8        29.90F
$$

WAZ021-516-517-032200-
WASHINGTON COAST

CITY           SKY/WX    TMP DP  RH WIND       PRES   REMARKS
FORKS          CLOUDY    72  55  55 SW7       29.96S
HOQUIAM        SUNNY     66  56  70 SW15      29.98F HAZE
ASTORIA, OR    SUNNY     69  57  65 W8        29.99F
$$

WAZ019-023-024-040-518-519-032200-
CASCADE MOUNTAINS AND COLUMBIA GORGE

CITY           SKY/WX    TMP DP  RH WIND       PRES   REMARKS
TROUTDALE, OR  SUNNY     90  55  30 W8        29.88F
THE DALLES, OR SUNNY     97  51  21 NW24G31   29.77F HX  94
$$

WAZ026-027-041>044-520-521-032200-
EAST SLOPES

CITY           SKY/WX    TMP DP  RH WIND       PRES   REMARKS
OMAK           SUNNY    101  33   9 VRB3      29.78F HX  95
WENATCHEE      SUNNY    101  29   8 S7        29.79F HX  94
ELLENSBURG     SUNNY    102  33   9 NW15G22   29.84F HX  96
YAKIMA         SUNNY    102  44  14 E6        29.80F HX  98
$$

WAZ028-034-035-032200-
COLUMBIA BASIN

CITY           SKY/WX    TMP DP  RH WIND       PRES   REMARKS
EPHRATA        SUNNY    101  39  12 W10       29.80F HX  96
MOSES LAKE     SUNNY    101  46  15 S12       29.81F HX  97
PASCO          SUNNY    101  47  16 CALM      29.76F HX  97
HERMISTON, OR  SUNNY    100  49  17 NW9       29.78F HX  97
$$

WAZ036>038-032200-
NORTHEAST WASHINGTON

CITY           SKY/WX    TMP DP  RH WIND       PRES   REMARKS
SPOKANE GEIGER MOSUNNY   97  37  12 NW13G20   29.88F HX  92
SPOKANE FELTS  SUNNY     99  41  13 SW7       29.85F HX  94
FAIRCHILD AFB  SUNNY     97  38  13 VRB6G22   29.89F HX  92
COEURDALENE,ID SUNNY     97  46  17 W8        29.86F HX  93
DEER PARK      SUNNY     96  46  18 MISG      29.87F HX  92
$$

WAZ029>033-032200-
SOUTHEAST WASHINGTON

CITY           SKY/WX    TMP DP  RH WIND       PRES   REMARKS
PULLMAN        SUNNY     95  43  16 NW9       29.92F HX  91
LEWISTON, ID   SUNNY    101  43  13 VRB3      29.82F HX  96
WALLA WALLA    SUNNY    100  42  13 VRB6      29.81F HX  95
PENDLETON, OR  SUNNY    100  44  14 VRB3      29.83F HX  96
$$


USA.gov is the U.S. government's official web portal to all federal, state and local government web resources and services.